Weather History for Chanute, KS

Change the Weather History Date:

Friday, January 18, 2013

  Actual Average Record
Temperature  
Mean Temperature 43 °F 32 °F  
Max Temperature 57 °F 42 °F 69 °F (1951)
Min Temperature 29 °F 23 °F -18 °F (1930)
Degree Days  
Heating Degree Days 22 33  
Month to date heating degree days 554 594  
Since 1 July heating degree days 1957 2387  
Cooling Degree Days 0 0  
Month to date cooling degree days 0 0  
Year to date cooling degree days 0 0  
Moisture  
Dew Point 28 °F    
Average Humidity 60    
Maximum Humidity 85    
Minimum Humidity 35    
Precipitation  
Precipitation 0.00 in 0.04 in 1.33 in (1979)
Month to date precipitation 0.40 0.70  
Year to date precipitation 0.40 0.70  
Sea Level Pressure  
Sea Level Pressure 30.29 in    
Wind  
Wind Speed 13 mph (South)    
Max Wind Speed 25 mph    
Max Gust Speed 30 mph    
Visibility 10 miles    
Events      
T = Trace of Precipitation, MM = Missing Value Source: NWS Daily Summary

Daily Weather History Graph

Daily Weather History Graph

Search for Another Location

Airport:

Trip Planner

Search our weather history database for the weather conditions in past years. The results will help you decide how hot, cold, wet, or windy it might be!

Date:

Astronomy

Jan. 18, 2013 Rise Set
Actual Time 7:34 AM CST 5:30 PM CST
Civil Twilight 7:06 AM CST 5:59 PM CST
Nautical Twilight 6:34 AM CST 6:31 PM CST
Astronomical Twilight 6:02 AM CST 7:02 PM CST
Moon 11:23 AM CST (1/18) 12:13 AM CST (1/18)
Length of Visible Light 10h 52m
Length of Day
9h 56m
Waxing Crescent, 47% of the Moon is Illuminated
Jan 18
Waxing Crescent
Jan 18
First Quarter
Jan 26
Full
Feb 3
Last Quarter
Feb 10
New

Hourly Weather History & Observations

Time (CST) Temp. Windchill Dew Point Humidity Pressure Visibility Wind Dir Wind Speed Gust Speed Precip Events Conditions
12:52 AM 28.9 °F 21.9 °F 24.1 °F 82% 30.46 in 10.0 mi South 6.9 mph - N/A   Clear
1:52 AM 32.0 °F 24.2 °F 26.1 °F 79% 30.46 in 10.0 mi South 9.2 mph - N/A   Clear
2:52 AM 32.0 °F 23.6 °F 26.1 °F 79% 30.45 in 10.0 mi South 10.4 mph - N/A   Clear
3:52 AM 32.0 °F 24.8 °F 26.1 °F 79% 30.43 in 10.0 mi South 8.1 mph - N/A   Clear
4:52 AM 34.0 °F 24.6 °F 27.0 °F 75% 30.41 in 10.0 mi South 13.8 mph - N/A   Clear
5:52 AM 32.0 °F 24.2 °F 26.1 °F 79% 30.40 in 10.0 mi South 9.2 mph - N/A   Clear
6:52 AM 30.9 °F 22.8 °F 25.0 °F 79% 30.40 in 10.0 mi South 9.2 mph - N/A   Clear
7:52 AM 33.1 °F 25.5 °F 26.1 °F 75% 30.39 in 10.0 mi South 9.2 mph - N/A   Clear
8:52 AM 36.0 °F 29.0 °F 27.0 °F 70% 30.40 in 10.0 mi SSW 9.2 mph - N/A   Clear
9:52 AM 39.9 °F 30.8 °F 28.0 °F 63% 30.40 in 10.0 mi SSW 18.4 mph - N/A   Clear
10:52 AM 45.0 °F 37.1 °F 28.9 °F 53% 30.37 in 10.0 mi South 19.6 mph - N/A   Clear
11:52 AM 51.1 °F - 30.0 °F 44% 30.31 in 10.0 mi SSW 21.9 mph 28.8 mph N/A   Clear
12:52 PM 52.0 °F - 30.0 °F 43% 30.26 in 10.0 mi SSW 18.4 mph 28.8 mph N/A   Clear
1:52 PM 55.9 °F - 30.9 °F 39% 30.23 in 10.0 mi SSW 18.4 mph 27.6 mph N/A   Clear
2:52 PM 57.0 °F - 30.0 °F 36% 30.20 in 10.0 mi SSW 19.6 mph 27.6 mph N/A   Clear
3:52 PM 55.9 °F - 28.9 °F 36% 30.18 in 10.0 mi SSW 18.4 mph 26.5 mph N/A   Clear
4:52 PM 54.0 °F - 30.0 °F 40% 30.17 in 10.0 mi South 18.4 mph 24.2 mph N/A   Clear
5:52 PM 48.9 °F - 30.0 °F 48% 30.16 in 10.0 mi South 11.5 mph - N/A   Clear
6:52 PM 46.0 °F 41.0 °F 28.9 °F 51% 30.17 in 10.0 mi South 10.4 mph - N/A   Clear
7:52 PM 44.1 °F 39.0 °F 28.9 °F 55% 30.18 in 10.0 mi South 9.2 mph - N/A   Clear
8:52 PM 42.1 °F 35.7 °F 30.0 °F 62% 30.16 in 10.0 mi South 11.5 mph - N/A   Clear
9:52 PM 42.1 °F 34.9 °F 30.0 °F 62% 30.14 in 10.0 mi South 13.8 mph - N/A   Clear
10:52 PM 42.1 °F 35.2 °F 30.0 °F 62% 30.12 in 10.0 mi South 12.7 mph - N/A   Clear
11:52 PM 42.1 °F 34.9 °F 30.0 °F 62% 30.10 in 10.0 mi South 13.8 mph - N/A   Clear